Location: Haram ta Haram Freeway
(35.0583°N, 51.4202°E)
Time: 16:01:50
(UTC+03:30)

Envisat - Visible Passes

Search period start: 03 October 2022 00:00
Search period end: 13 October 2022 00:00
Orbit: 764 x 765 km, 98.2° (Epoch: 03 October)

Date Brightness Start Highest point End Pass type
(mag) Time Alt. Az. Time Alt. Az. Time Alt. Az.
03 Oct 3.2 04:12:33 10° NNE 04:17:37 69° ESE 04:22:39 10° S visible
04 Oct 4.8 03:36:12 10° NE 03:40:33 28° E 03:44:53 10° SSE visible
04 Oct 3.9 05:15:10 10° NNW 05:19:26 28° WNW 05:23:41 10° SW visible
05 Oct 5.9 03:01:37 10° ENE 03:03:18 12° E 03:04:59 10° ESE visible
05 Oct 2.9 04:37:39 10° N 04:42:41 66° WNW 04:47:41 10° SSW visible
06 Oct 3.7 04:00:47 10° NNE 04:05:45 52° E 04:10:40 10° S visible
07 Oct 5.2 03:24:44 10° NE 03:28:37 22° E 03:32:28 10° SE visible
07 Oct 3.5 05:03:02 10° N 05:07:39 36° WNW 05:12:15 10° SW visible
08 Oct 2.9 04:25:45 10° NNE 04:30:51 86° WNW 04:35:54 10° SSW visible
09 Oct 4.2 03:49:06 10° NNE 03:53:51 39° E 03:58:34 10° SSE visible
09 Oct 4.2 05:28:50 10° NNW 05:32:32 21° WNW 05:36:13 10° WSW visible
10 Oct 5.6 03:13:29 10° NE 03:16:40 17° E 03:19:49 10° SE visible
10 Oct 3.2 04:51:00 10° N 04:55:52 47° WNW 05:00:41 10° SW visible
11 Oct 3.1 04:13:54 10° NNE 04:18:59 73° ESE 04:24:02 10° S visible
12 Oct 4.7 03:37:29 10° NE 03:41:55 30° E 03:46:20 10° SSE visible
12 Oct 3.9 05:16:35 10° NNW 05:20:46 27° WNW 05:24:57 10° SW visible
